Location: Unsp...
(0.0000°N, 0.0000°E)
Time: 06:18:33
(UTC+02:00)

Daily predictions for brighter satellites

Satellite Brightness Start Highest point End
(mag) Time Altitude Azimuth Time Altitude Azimuth Time Altitude Azimuth
Ariane H10-3 4.0 19:44:26 10° W 19:49:38 74° N 20:43:31 10° E
Cosmos 2082 4.1 20:11:20 10° NNW 20:16:56 71° WSW 20:22:35 10° S
USA 229 DEB 3.8 20:10:53 10° SSW 20:17:43 90° N 20:24:31 10° NNE
USA 229 3.8 20:10:59 10° SSW 20:17:50 89° ESE 20:24:38 10° NNE
ARIANE 5 DEB (SYLDA) 3.7 20:20:37 10° W 20:23:47 82° N 20:35:55 10° E
ARIANE 3 DEB 1.6 20:25:22 10° W 20:27:32 90° W 20:30:38 10° E
NOSS 3-1 (A) 4.3 20:24:22 10° SSE 20:28:28 21° ESE 20:32:31 10° ENE
YAOGAN 1 3.5 20:24:43 10° S 20:28:55 51° WSW 20:33:06 10° NNW
Maqsat-B 4.0 20:27:45 10° WNW 20:30:54 30° N 20:35:31 10° ENE
ARIANE 5 DEB (SYLDA) 3.4 20:28:42 10° WSW 20:31:14 23° S 20:32:48 11° SE
Cosmos 2219 Rocket 3.7 20:30:24 10° SE 20:32:35 12° ESE 20:34:46 10° E
Cosmos 1869 3.2 20:28:56 10° S 20:32:52 79° E 20:36:47 10° N
FUSE 4.2 20:29:31 10° NW 20:34:47 58° NNE 20:39:28 13° ESE
Abrixas 4.0 20:36:36 10° S 20:38:25 16° SE 20:38:51 15° ESE
CZ-4 R/B 4.2 20:36:29 10° SSW 20:39:20 19° WSW 20:42:08 10° NW
Meteor 2-3 Rocket 3.8 20:33:45 10° N 20:39:29 65° E 20:45:15 10° SSE
SJ-6B 4.0 20:44:50 16° ESE 20:46:45 23° ENE 20:49:53 10° NNE
Gbstr 26 Del rocket 4.3 20:45:29 10° SW 20:51:23 74° NW 20:58:37 10° NNE
CZ-3 Stage 3 4.4 20:29:59 10° NW 20:56:30 31° N 21:02:37 11° ENE
Cosmos 1862 Rocket 3.5 20:56:47 10° S 21:01:10 61° E 21:05:33 10° NNE
ERBS 4.5 21:00:19 10° NNE 21:01:38 14° NE 21:01:38 14° NE
NATO 3D Rocket 3.9 20:57:46 10° SW 21:02:59 41° SSE 21:04:54 28° ESE
Cosmos 1400 Rocket 4.0 21:04:27 10° NNW 21:08:17 45° W 21:12:11 10° SSW
deb Ariane 2.9 21:07:28 10° W 21:09:45 88° N 21:11:10 36° E
Nadezhda 4 Rocket 4.2 21:03:57 10° N 21:10:15 76° W 21:16:34 10° S
Hubble Space Telescope 2.0 21:06:41 10° W 21:10:26 33° SSW 21:12:16 22° SSE
GPS 2-04 Rocket1 2.3 21:10:42 10° NW 21:14:14 84° NE 21:14:53 58° ESE
OTV 4 0.4 21:12:08 10° NW 21:14:44 68° N 21:14:44 68° N
Cosmos 2360 Rocket 4.0 21:10:02 10° SW 21:15:02 33° WNW 21:20:02 10° NNW
Meteor 2-20 4.5 21:09:09 10° N 21:15:08 56° E 21:20:20 14° SSE
Cosmos 2263 Rocket 4.2 21:12:56 10° NE 21:13:10 11° NE 21:13:10 11° NE
Delta 2 Rocket 4.5 21:10:03 10° WSW 21:15:38 60° NW 21:20:27 12° NE
SL-8 R/B 3.7 21:11:05 10° NW 21:15:52 78° SW 21:18:05 32° SSE
Ariane H10+ 1.7 21:15:24 10° WNW 21:18:07 56° NNE 21:19:54 35° ENE
HJ-1C 4.3 21:21:02 37° NNE 21:21:02 37° NNE 21:23:25 10° N
Cosmos 1933 3.8 21:20:59 10° SSW 21:24:59 61° W 21:28:58 10° N
Lacrosse 4 Rocket 2.9 21:21:14 10° N 21:23:43 24° NE 21:23:43 24° NE
Cosmos 1092 Rocket 4.1 21:20:36 10° N 21:26:54 80° W 21:33:12 10° S
COSMOS 2428 2.9 21:21:32 10° SSW 21:27:11 72° WNW 21:32:50 10° N
ARIANE 5 DEB (SYLDA) 2.8 21:19:58 10° W 21:27:37 72° S 21:28:03 65° SE
Cosmos 220 Rocket 4.3 21:24:46 10° N 21:28:28 49° NE 21:28:28 49° NE
Helios 1B rocket 2.3 21:25:21 10° NNE 21:29:04 66° ENE 21:29:04 66° ENE
GPS 2-15 Rocket1 3.0 21:24:51 10° WNW 21:29:28 69° NNE 21:30:00 62° ENE
Cosmos 1315 Rocket 3.7 21:26:35 10° NNW 21:30:23 48° W 21:33:03 18° SSW
Gblst 52 Del rocket 4.0 21:26:08 10° NNW 21:31:37 71° NE 21:32:44 55° ESE
ALOS 2.4 21:30:46 24° S 21:33:36 72° WSW 21:38:15 10° NNW
Cosmos 1486 Rocket 4.4 21:29:54 10° NNW 21:35:05 61° WSW 21:38:43 20° S
Spot 2 Rocket 4.2 21:40:57 38° NNE 21:40:57 38° NNE 21:44:28 10° N
H-2A R/B 4.1 21:47:34 35° NNW 21:47:34 35° NNW 21:49:52 10° NNW
Meteor 2-10 Rocket 4.2 21:41:23 10° SSW 21:47:03 62° W 21:52:47 10° N
CZ-3B Rocket 3.7 21:48:08 10° WNW 21:51:20 20° NNW 21:52:18 18° N
Cosmos 1825 4.2 21:49:44 10° NNW 21:51:17 23° NNW 21:51:17 23° NNW
Ariane H10 4.2 21:51:24 10° WNW 21:53:04 36° NW 21:53:04 36° NW
Cosmos 1655 Rocket 3.9 21:54:10 10° N 22:00:16 82° NE 22:00:16 82° NE
Ariane H10+ 4.2 12:29:18 10° W 22:03:15 61° N 22:04:35 52° NE
ARIANE 5 R/B 2.9 21:48:17 10° W 22:05:36 82° WNW 22:05:36 82° WNW
Cosmos 2333 Rocket 3.9 22:00:13 10° SSW 22:11:00 13° N 22:11:38 10° N
BLOCK DM-SL R/B 4.3 15:02:25 10° W 22:12:40 89° N 22:16:56 55° E
Cosmos 2219 Rocket 3.2 22:11:02 10° SW 22:16:15 42° WNW 22:21:30 10° N
Meteosat 1 Rocket2 4.4 22:08:00 10° WNW 22:18:14 85° WSW 22:18:14 85° WSW
Resurs 01 Rocket 3.9 22:21:37 22° NW 22:21:37 22° NW 22:23:24 10° NNW
ARIANE 5 R/B 3.8 13:00:31 10° W 22:39:47 84° N 22:40:17 81° NE
